Location: Bazugues
(43.4465°N, 0.3432°E)
Time: 11:15:34
(UTC+00:00)

BREEZE-M DEB (TANK) - Pass Details

Date: 12 January 2026
Orbit: 337 x 14348 km, 49.5° (Epoch: 10 February)

Event Time Altitude Azimuth Distance (km) Brightness Sun altitude
Rises 18:05:30 0° 295° (WNW) 2,537 7.0 -14.4°
Reaches altitude 10° 18:07:53 10° 308° (NW) 1,357 5.3 -14.8°
Maximum altitude 18:10:07 29° 14° (NNE) 663 3.0 -15.2°
Enters shadow 18:10:15 28° 21° (NNE) 668 2.9 -15.2°
